Tracking 19181 objects as of 17-Jun-2018
HD Live streaming from Space Station
objects crossing your sky now

FENGYUN 1C DEB

Track FENGYUN 1C DEB now!
10-day predictions


NORAD ID: 31992
Int'l Code: 1999-025CPV
Perigee: 775.7 km
Apogee: 1,609.3 km
Inclination: 99.2 °
Period: 109.1 minutes
Semi major axis: 7563 km
RCS: 0.0005 m2 (small)
Launch date: May 10, 1999
Source: People's Republic of China (PRC)
Launch site: Taiyaun Space Center, China (TSC)

Note: This is SATELLITE DEBRIS
aabbcc
Your satellite tracking list
Your tracking list is empty




NASA's NSSDC Master Catalog

Two Line Element Set (TLE):
1 31992U 99025CPV 18159.92513383 -.00000016  00000-0  21477-4 0  9990
2 31992  99.1951  53.9152 0551069 173.4086 186.4810 13.19826703528575
Source of the keplerian elements: AFSPC